Regional Weather Roundup
Issued by NWS

Home | Current Version | Previous Version | Graphics & Text | Print | Product List | Glossary On
Versions: 1 2 3 4 5 6 7 8 9 10 11 12 13 14 15 16 17 18 19 20 21 22 23 24 25 26 27 28 29 30 31 32 33 34 35 36 37 38 39 40 41 42 43 44 45 46 47 48 49 50
000
ASUS43 KMPX 271710
RWRMN
WEATHER ROUNDUP FOR MINNESOTA
NATIONAL WEATHER SERVICE TWIN CITIES/CHANHASSEN MN
1200 PM CDT THU AUG 27 2015


NOTE: "FAIR" INDICATES FEW OR NO CLOUDS BELOW 12,000 FEET WITH NO
SIGNIFICANT WEATHER AND/OR OBSTRUCTIONS TO VISIBILITY. N/A MEANS
CURRENT SKY AND/OR WEATHER CONDITIONS ARE NOT AVAILABLE.

MNZ060>063-068>070-271800-
   Twin Cities Metro

CITY           SKY/WX    TMP DP  RH WIND       PRES   REMARKS
TWIN CITIES    PTSUNNY   73  56  54 S10       30.07F
ST PAUL        MOSUNNY   72  59  63 SE13      30.07F
CRYSTAL        MOSUNNY   75  57  53 S15       30.05F
BLAINE         PTSUNNY   73  57  56 MISG      30.07F
LAKEVILLE      PTSUNNY   66  57  72 S6        30.08F
EDEN PRAIRIE   PTSUNNY   73  58  59 S13G20    30.05F
SOUTH ST PAUL  MOSUNNY   73  56  56 S12G17    30.07F
LAKE ELMO      FAIR      72  61  68 S9        30.09F
$$
MNZ001>005-007-008-013>017-022>024-027-028-271800-
   Northwest Minnesota

CITY           SKY/WX    TMP DP  RH WIND       PRES   REMARKS
BEMIDJI        MOSUNNY   70  58  66 S9        30.01S
HALLOCK        SUNNY     72  61  68 E5        29.96F
ROSEAU         SUNNY     72  57  60 CALM      29.99F
WARROAD        SUNNY     70  59  68 CALM      30.00S
THIEF RVR FALL MOSUNNY  N/A N/A N/A E5        29.98S
CROOKSTON      MOSUNNY   70  59  68 SE5       29.98S
FOSSTON        PTSUNNY   73  64  73 E3        30.00S
DETROIT LAKES  MOSUNNY   70  59  68 SE8       30.00F
MOORHEAD       MOSUNNY   73  61  64 SE6       29.97F
PARK RAPIDS    PTSUNNY   71  57  61 SE7       30.01F
MAHNOMEN       CLOUDY    69  60  73 CALM      29.99F
$$
MNZ006-009>011-018-025>026-271800-
   North Central Minnesota

CITY           SKY/WX    TMP DP  RH WIND       PRES   REMARKS
BAUDETTE       SUNNY     71  56  58 CALM      30.00F
FLAG ISLAND    SUNNY     64  57  77 S8        30.00S
INTL FALLS     SUNNY     71  56  58 S8        30.02F
WASKISH        SUNNY     72  57  60 S7        30.01S
BIG FORK       SUNNY     72  57  60 SE8       30.04S
LONGVILLE      PTSUNNY   72  59  64 S6        30.02F
GRAND RAPIDS     N/A     68  55  64 SE9       30.05S
CRANE LAKE     MOSUNNY   68  55  64 SW3       30.06F
ORR            SUNNY     72  52  49 S5        30.03S
COOK           SUNNY     70  55  60 SE8       30.06S
WALKER         CLOUDY    68  57  68 SE7       30.02S
$$
MNZ012-019>021-037-271800-
   Northeast Minnesota

CITY           SKY/WX    TMP DP  RH WIND       PRES   REMARKS
DULUTH         MOSUNNY   68  55  63 S12       30.09S
ELY            SUNNY     68  54  60 SW7       30.07F
HIBBING        SUNNY     71  56  58 VRB7      30.06F
EVELETH        SUNNY     72  55  56 S8        30.07F
DULUTH HARBOR  MOSUNNY   57  54  88 NE5       30.09F
TWO HARBORS    SUNNY     70  57  64 S5        30.07F
SILVER BAY     SUNNY     70  54  56 S7        30.07F
GRAND MARAIS     N/A     56  48  74 CALM      30.10S
G MARAIS ARPRT SUNNY     64  43  45 S7        30.12S
$$
MNZ029>031-032-039>041-046>048-054>057-064-271800-
   West Central Minnesota

CITY           SKY/WX    TMP DP  RH WIND       PRES   REMARKS
FERGUS FALLS   SUNNY     72  61  68 S8        29.98R
WHEATON        FAIR      70  63  78 CALM      29.99F
MORRIS         MOSUNNY   72  63  73 S12       30.00R
ALEXANDRIA     SUNNY     72  61  68 SE9       30.01F
ELBOW LAKE     FAIR      71  63  76 S10       30.00R
WADENA         MOSUNNY   70  61  73 SE8       30.00S
GLENWOOD       MOSUNNY   72  61  68 S10       30.02R
APPLETON       PTSUNNY   66  59  77 SE6       29.99F
BENSON         PTSUNNY   66 N/A N/A S6        30.00S
ORTONVILLE     PTSUNNY   64  59  82 E6        29.97F
MADISON        LGT RAIN  66  63  88 E10       29.95F
WILLMAR        FAIR      66  59  77 S8        30.05R
$$
MNZ033>034-036-042>043-049>051-058-059-271800-
   Central Minnesota

CITY           SKY/WX    TMP DP  RH WIND       PRES   REMARKS
ST CLOUD       MOSUNNY   73  59  61 S13       30.03S
SAUK CENTRE    FAIR      70  61  71 SE8       30.01F
PAYNESVILLE    MOSUNNY   69  58  67 E13       30.03S
AITKIN         PTSUNNY   73  57  56 S10       30.03S
PINE RIVER     MOSUNNY   70  59  68 SE12      30.05S
BRAINERD       PTSUNNY   70  58  65 S10       30.03S
STAPLES        MOSUNNY   70  57  64 SE6       30.01S
LONG PRAIRIE   FAIR      70  59  68 SE8       30.02S
LITTLE FALLS   MOSUNNY   72  57  60 SE9       30.02F
LITCHFIELD     PTSUNNY   68  61  77 SE7       30.04R
BUFFALO        MOSUNNY   72  56  57 SE10G16   30.05F
MAPLE LAKE     MOSUNNY   73  62  68 SE7       30.05S
$$
MNZ037-044-045-052-053-271800-
   East Central Minnesota

CITY           SKY/WX    TMP DP  RH WIND       PRES   REMARKS
PRINCETON      PTSUNNY   73  59  60 SE10      30.05S
MORA           PTSUNNY   70  57  64 S9        30.08S
CAMBRIDGE      CLOUDY    73  57  56 S10       30.04F
RUSH CITY      PTSUNNY   70  59  69 SE7       30.07
MOOSE LAKE     MOSUNNY   70  55  60 S3        30.05F
HINCKLEY       CLOUDY    70  59  68 S8        30.07F
CLOQUET        CLOUDY    66  55  68 SE5       30.08F
MCGREGOR       MOSUNNY   70  59  68 S9        30.05F
$$
MNZ071>073-080-081-089-090-097-098-271800-
   Southwest Minnesota

CITY           SKY/WX    TMP DP  RH WIND       PRES   REMARKS
MONTEVIDEO     CLOUDY    68  61  77 S5        30.02F
GRANITE FALLS  CLOUDY    67  60  77 E10       30.01F
CANBY          CLOUDY    65  63  91 S9        30.03R
MARSHALL       CLOUDY    66  59  77 S8        30.03R
REDWOOD FALLS  CLOUDY    71  60  68 S13       30.02R
OLIVIA         CLOUDY    68  59  73 SE8       30.02R
PIPESTONE      CLOUDY    70  63  78 S8G20     30.04R
WINDOM         CLOUDY    66  57  72 S9        30.04R
WORTHINGTON    CLOUDY    64  59  82 SW3       30.04S
JACKSON        CLOUDY    64  59  82 SW3       30.06R
TRACY          CLOUDY    68  62  80 SE13      30.01F
SLAYTON        CLOUDY    65  61  85 S6        30.06R
$$
MNZ065>067-074>077-082>085-091>093-271800-
   South Central Minnesota

CITY           SKY/WX    TMP DP  RH WIND       PRES   REMARKS
MANKATO        PTSUNNY   72  57  60 S20       30.04F
NEW ULM        CLOUDY    70  57  64 SE9       30.03R
FAIRMONT       CLOUDY    64  54  68 SE13      30.01R
GLENCOE        CLOUDY    70  60  71 CALM      30.04S
FARIBAULT      CLOUDY    70  59  68 S9        30.08F
OWATONNA       CLOUDY    72  55  56 S12G21    30.08F
WASECA         PTSUNNY   72  57  60 S13G21    30.09F
ALBERT LEA     PTSUNNY   72  55  56 S15G21    30.08F
$$
MNZ078>079-086>088-094>096-271800-
   Southeast Minnesota

CITY           SKY/WX    TMP DP  RH WIND       PRES   REMARKS
ROCHESTER      CLOUDY    67  58  72 S16       30.14F
RED WING       PTSUNNY   73  55  53 S10       30.09F
STANTON        CLOUDY    69  57  66 S9        30.07F
DODGE CENTER   CLOUDY    66  57  72 S15       30.11F
WINONA         PTSUNNY   73  57  56 SW5       30.14F
AUSTIN         PTSUNNY   70  57  64 S12G17    30.10F
PRESTON        CLOUDY    67  56  67 S14       30.16F
$$
ABBREVIATIONS USED IN REMARKS
   TC - TEMPERATURES IN CELSIUS
  WCI - WIND CHILL INDEX
   HX - HEAT INDEX
  VSB - VISIBILITY
$$


USA.gov is the U.S. government's official web portal to all federal, state and local government web resources and services.